Flag for Germany Weather past 2 weeks in Vechta, Lower Saxony, Germany

Now
34 °F

Passing clouds.


Feels Like: 25 °F
Forecast: 34 / 41 °F
Wind: 13 mph from Southwest

Location: Bremen Airport

Current Time: Mar 2, 2015 at 9:09:31 PM

Latest Report: Mar 2, 2015 at 8:20 PM


Visibility: N/A

Pressure: 29.68 "Hg

Humidity: 100%

Dew point: 34 °F

Location of VechtaLocation

Historic Weather in Vechta — Graph

°F

Vechta temperature yesterday

Maximum temperature yesterday: 50 °F (at 11:50 AM)
Minimum temperature yesterday: 37 °F (at 8:20 PM)
Average temperature yesterday: 42 °F

Past Weeks' High & Low Weather Summary

 TemperatureHumidityPressure
High50 °F (Mar 1, 11:50 AM)100% (Feb 17, 3:20 AM)30.72 "Hg (Feb 17, 3:20 AM)
Low27 °F (Feb 17, 5:50 AM)50% (Mar 2, 3:50 PM)29.27 "Hg (Feb 21, 6:50 AM)
Average39 °F86%29.88 "Hg
* Reported Feb 15 7:20 PM — Mar 2 7:50 PM, Vechta, Weather by CustomWeather, © 2015

Note: Actual official high and low records may vary slightly from our data, if they occured in-between our weather recording intervals... More about our weather records

Advertising

Vechta weather history for previous 24 hours

 ConditionsComfort  
Time TempWeatherWind HumidityBarometerVisibility
7:50 PM
Mon, Mar 2
34 °FPassing clouds.13 mph93%29.68 "HgN/A
7:20 PM34 °FPassing clouds.9 mph100%29.68 "HgN/A
6:50 PM34 °FRain showers. Passing clouds.28 mph93%29.68 "Hg2 mi
6:20 PM43 °FPassing clouds.13 mph66%29.62 "HgN/A
5:50 PM43 °FBroken clouds.15 mph61%29.59 "HgN/A
5:20 PM43 °FPartly sunny.15 mph66%29.59 "HgN/A
4:50 PM45 °FScattered clouds.18 mph57%29.59 "HgN/A
4:20 PM46 °FScattered clouds.22 mph50%29.59 "HgN/A
3:50 PM46 °FScattered clouds.24 mph50%29.56 "HgN/A
3:20 PM48 °FScattered clouds.18 mph58%29.56 "HgN/A
2:50 PM45 °FScattered clouds.21 mph61%29.56 "HgN/A
2:20 PM46 °FScattered clouds.22 mph57%29.56 "HgN/A
1:50 PM46 °FScattered clouds.25 mph57%29.56 "HgN/A
1:20 PM46 °FScattered clouds.26 mph57%29.53 "HgN/A
12:50 PM45 °FScattered clouds.22 mph66%29.53 "HgN/A
12:20 PM45 °FScattered clouds.23 mph66%29.53 "HgN/A
11:50 AM43 °FScattered clouds.28 mph71%29.50 "HgN/A
11:20 AM43 °FScattered clouds.25 mph76%29.50 "HgN/A
10:50 AM43 °FScattered clouds.24 mph76%29.50 "HgN/A
10:20 AM41 °FPartly sunny.24 mph81%29.47 "HgN/A
9:50 AM41 °FSprinkles. Partly sunny.18 mph81%29.47 "HgN/A
9:20 AM39 °FSprinkles. Broken clouds.23 mph87%29.47 "HgN/A
8:50 AM39 °FScattered clouds.21 mph87%29.45 "HgN/A
8:20 AM39 °FPartly sunny.18 mph87%29.45 "HgN/A
7:50 AM37 °FPartly sunny.16 mph93%29.45 "HgN/A
7:20 AM37 °FPassing clouds.16 mph93%29.42 "HgN/A
6:50 AM37 °FSprinkles. Passing clouds.23 mph93%29.42 "HgN/A
6:20 AM39 °FPassing clouds.17 mph81%29.39 "HgN/A
5:50 AM39 °FPassing clouds.20 mph87%29.39 "HgN/A
5:20 AM39 °FPassing clouds.23 mph87%29.36 "HgN/A
4:50 AM41 °FSprinkles. Partly cloudy.25 mph87%29.36 "HgN/A
4:20 AM41 °FPassing clouds.21 mph87%29.33 "HgN/A
3:50 AM41 °FPartly cloudy.20 mph87%29.33 "HgN/A
3:20 AM41 °FLight rain. Partly cloudy.7 mph93%29.33 "HgN/A
2:50 AM39 °FPassing clouds.7 mph100%29.33 "HgN/A
2:20 AM41 °FRain. Passing clouds.22 mph93%29.36 "Hg4 mi
1:50 AM41 °FLight rain. Passing clouds.14 mph87%29.33 "HgN/A
1:20 AM41 °FPassing clouds.13 mph87%29.36 "HgN/A
12:50 AM39 °FPassing clouds.9 mph87%29.39 "HgN/A
12:20 AM39 °FPartly cloudy.12 mph87%29.39 "HgN/A
11:50 PM
Sun, Mar 1
39 °FPassing clouds.9 mph87%29.42 "HgN/A
11:20 PM39 °FPassing clouds.9 mph81%29.45 "HgN/A
10:50 PM39 °FPartly cloudy.9 mph87%29.47 "HgN/A
10:20 PM37 °FClear.9 mph87%29.47 "Hg10 mi
9:50 PM37 °FClear.9 mph87%29.47 "Hg10 mi
9:20 PM39 °FClear.9 mph81%29.50 "Hg10 mi
Weather by CustomWeather, © 2015

See weather overviewHow to use our weather pages